Wind_Speed
7 6 5 5 4 3 4 4 4 4 4 5 5 5 4 4 5 6 6 6 6 6 5 5 5 5 5 4 4 4 3 4 4 4 5 5 4 4 4 4 4 5 6
7 6 5 4 4 3 3 4 4 5 4 5 5 5 5 4 4 6 6 6 6 6 6 5 5 5 5 5 5 4 3 3 4 5 5 5 5 5 4 4 5 5 5
6 5 4 3 3 2 2 3 5 5 4 4 4 4 5 5 5 6 7 6 6 6 6 5 5 5 5 5 4 4 4 4 5 5 5 5 5 5 5 5 5 5 5
5 5 4 3 3 3 2 3 4 5 4 5 5 5 6 6 6 6 6 6 6 6 6 5 5 4 5 4 4 4 4 4 4 4 5 5 5 5 5 5 5 5 5
5 5 5 4 4 3 3 3 4 4 4 5 5 6 6 6 6 6 6 6 5 5 5 5 4 4 5 4 4 4 4 4 4 4 4 5 5 5 5 6 5 5 5
5 5 5 5 4 3 3 2 3 3 3 4 5 6 7 7 6 6 6 6 5 5 4 4 4 4 4 4 4 4 4 5 5 4 4 5 5 6 6 6 6 5 6
6 5 5 5 4 4 3 3 3 4 3 4 6 6 7 6 7 6 6 6 5 5 4 4 3 4 4 4 4 4 4 4 5 5 5 5 5 6 6 6 6 6 6
6 6 5 5 3 3 4 3 4 4 4 5 6 7 7 7 6 6 6 6 5 5 4 2 2 4 4 3 3 3 3 3 4 4 5 6 6 6 6 7 7 7 7
6 6 5 5 3 3 3 2 4 5 5 6 6 6 7 7 6 5 5 5 4 4 3 3 3 2 2 2 2 2 2 2 3 4 4 5 6 6 6 6 7 8 8
6 5 5 5 4 4 3 4 4 5 5 6 6 6 7 6 5 5 5 4 3 2 2 2 2 1 2 1 2 3 3 2 3 4 4 5 6 6 7 7 7 9 9
6 5 6 5 4 4 3 4 4 5 5 5 6 6 6 5 5 5 4 4 3 2 2 1 1 1 1 1 2 2 2 2 3 4 4 5 6 6 6 7 8 9 9
6 6 6 6 5 4 4 4 5 5 4 5 5 5 4 4 4 4 4 3 3 2 1 0 1 2 2 2 2 1 2 3 3 4 4 5 6 6 6 6 7 8 9
6 6 6 5 5 5 5 5 4 4 5 5 5 5 5 4 4 4 4 3 2 1 0 1 1 2 2 2 1 1 2 3 3 4 4 4 5 5 6 6 7 8 8
6 7 6 6 6 6 5 5 5 5 5 5 5 5 4 3 3 3 2 2 2 1 1 1 1 2 1 2 2 2 2 3 3 3 4 4 5 6 6 7 7 7 8
7 7 7 8 8 7 6 6 6 5 6 5 5 4 4 3 3 3 2 1 1 1 1 1 1 2 1 1 0 2 3 3 3 4 4 5 5 5 6 6 6 6 8
6 6 7 7 7 7 7 7 6 5 5 4 4 4 4 4 3 3 2 1 1 1 1 1 2 2 2 2 2 2 3 3 4 4 4 5 5 5 6 6 6 7 8
6 6 6 6 7 7 7 8 6 5 5 4 4 4 3 3 3 3 2 3 2 2 2 2 2 3 2 2 3 3 4 4 4 5 5 5 6 6 7 7 7 7 8
5 5 5 5 6 6 6 7 6 5 4 4 4 3 3 2 2 2 2 2 2 2 2 2 3 3 3 3 4 4 5 5 5 5 5 6 6 7 8 8 7 7 8
4 4 4 4 5 5 5 5 5 5 4 4 3 3 2 2 2 1 1 1 1 2 3 3 3 3 3 3 4 4 5 5 5 5 5 6 7 8 8 8 8 8 9
2 3 3 4 4 5 4 4 4 4 3 3 3 2 2 2 1 1 1 1 2 2 3 3 4 4 3 3 4 4 5 5 4 5 5 6 7 8 8 9 9 9 9
2 2 2 3 4 4 4 3 3 3 3 2 1 2 2 1 1 1 1 2 2 1 2 3 4 5 5 4 5 5 5 5 5 5 6 6 7 8 9 9 9 9 9
3 3 2 3 3 4 4 3 3 3 3 2 1 1 2 2 2 2 2 2 2 2 2 3 4 5 6 5 5 6 6 7 6 6 6 7 7 8 9 10 10 10 10
4 4 4 3 4 4 4 4 3 3 3 2 2 2 2 3 3 3 3 3 3 3 4 5 5 6 6 6 6 6 7 6 7 7 7 7 9 9 10 11 11 12 11
5 4 4 4 4 4 4 4 4 4 4 3 3 4 4 4 5 5 4 4 4 5 6 6 7 8 8 8 8 8 9 8 8 8 8 9 9 10 11 11 11 12 11
6 5 5 5 5 5 5 5 5 5 5 4 4 5 5 5 5 5 5 6 6 6 7 8 9 9 9 9 10 10 9 8 9 9 10 10 10 10 11 12 12 11 12
7 6 6 6 6 7 7 6 6 5 5 5 5 5 6 6 6 6 6 7 7 7 8 8 9 9 9 10 10 11 10 10 10 11 11 11 12 12 12 12 12 12 12
Wind_Direction
109 112 117 122 126 128 129 134 143 155 161 166 165 167 165 164 173 168 164 169 173 175 180 183 183 182 186 188 182 187 200 202 209 226 242 245 249 263 268 264 277 270 277
104 105 111 116 121 117 128 138 146 154 157 158 164 169 169 166 171 176 174 176 177 178 181 182 181 184 191 191 194 197 207 216 234 245 249 249 252 264 270 275 277 273 275
98 101 108 112 119 103 121 146 151 151 157 162 159 160 162 161 161 168 175 178 177 177 178 176 172 181 187 194 202 212 221 235 250 264 258 259 265 269 269 276 282 276 276
93 97 104 108 109 100 117 135 146 152 159 165 159 158 159 158 159 160 168 175 174 177 182 181 180 186 196 206 219 227 232 242 255 266 264 271 273 273 272 272 279 275 272
88 95 101 105 105 102 114 131 140 149 154 158 159 157 155 156 159 160 161 167 169 172 173 182 185 196 200 211 223 234 237 251 251 267 273 274 274 276 276 273 278 271 270
83 91 93 103 102 96 101 109 131 145 150 155 162 153 149 151 152 154 157 160 159 157 163 183 180 188 189 196 214 233 243 249 247 263 277 276 269 271 275 277 280 276 271
80 90 89 92 92 85 85 93 126 137 127 137 150 152 149 152 154 151 154 155 158 157 158 165 178 192 196 202 212 230 248 247 259 267 276 275 272 272 273 274 284 277 279
81 87 86 91 87 82 78 83 107 118 120 124 145 154 154 154 154 155 155 156 162 166 162 164 173 192 194 208 222 241 247 256 271 283 280 279 278 278 280 277 278 275 279
76 76 76 91 85 73 72 92 102 107 117 123 136 147 151 152 156 157 159 163 167 174 173 166 168 193 209 222 236 247 266 280 285 285 292 285 287 289 291 291 285 278 279
68 63 67 76 76 72 75 111 107 110 118 128 138 141 147 151 151 158 156 159 160 162 162 174 182 197 231 238 269 278 288 299 291 284 293 295 300 293 288 293 294 292 284
72 72 75 71 76 75 91 106 114 120 127 134 138 138 142 145 147 153 147 148 151 148 153 184 214 243 259 282 301 298 309 306 297 296 301 307 307 301 294 295 302 300 291
76 79 81 76 75 76 93 104 107 122 125 126 128 128 135 138 146 147 147 148 147 147 157 219 281 275 268 275 301 324 328 311 303 301 304 305 306 304 302 300 304 313 305
74 80 77 77 69 68 78 98 113 122 112 120 124 125 128 134 133 134 139 135 130 113 55 304 298 296 273 276 291 333 319 313 306 306 318 319 318 315 314 316 316 313 311
71 80 77 71 66 64 69 89 103 114 106 111 116 114 120 125 132 138 133 128 103 50 350 295 296 303 297 286 289 306 305 316 324 329 337 330 331 334 330 328 324 317 313
72 76 70 70 67 61 65 81 96 105 102 100 111 108 109 113 118 120 115 100 94 56 17 340 302 283 314 46 328 306 307 322 334 346 350 348 338 331 329 327 323 316 312
75 68 63 66 62 61 65 76 86 100 109 110 103 105 109 109 103 95 96 87 74 68 55 15 17 30 42 30 1 342 334 324 324 333 336 342 337 330 330 328 319 318 321
70 63 61 62 59 59 62 68 77 92 106 107 110 110 115 110 101 95 94 83 72 64 53 30 20 36 30 14 346 328 322 316 319 323 332 333 332 329 328 326 319 315 322
68 65 63 58 57 56 56 59 63 79 95 97 107 116 111 106 105 102 93 66 49 38 29 7 5 8 1 357 348 337 329 326 323 320 327 329 330 328 326 325 320 318 318
63 65 59 47 45 47 49 49 48 56 70 81 89 103 103 102 102 92 66 37 23 20 15 4 12 13 14 6 357 348 335 332 331 323 323 326 327 329 327 327 324 321 320
40 51 50 42 34 35 36 38 40 50 63 70 67 65 81 92 93 50 10 346 344 1 2 7 15 14 1 345 341 338 334 332 333 330 328 332 333 332 332 333 331 327 323
356 17 26 21 18 21 25 28 30 38 50 59 51 44 45 44 17 337 327 331 322 349 16 9 4 0 352 343 333 328 323 324 321 319 319 325 329 330 331 332 333 329 326
321 334 344 339 351 360 3 6 9 18 18 15 0 355 2 355 335 329 330 330 326 327 332 333 338 339 336 330 326 323 316 318 317 311 316 321 318 320 325 329 329 328 323
311 314 320 322 325 335 343 350 349 350 350 344 330 314 308 311 309 302 303 309 310 302 303 309 313 315 324 325 313 311 312 308 311 307 300 308 312 312 319 323 324 322 320
304 305 308 315 312 313 323 331 328 328 328 325 315 306 301 305 302 298 297 299 299 295 295 301 307 310 315 320 318 310 307 306 305 305 307 308 310 313 316 319 320 320 319
297 301 301 300 300 297 304 316 320 323 317 309 304 302 300 304 306 300 293 292 294 296 297 299 302 307 312 311 310 310 314 308 309 305 304 305 308 310 311 314 315 318 317
294 295 296 293 294 293 290 294 303 311 311 308 302 301 300 299 299 297 292 289 290 294 295 296 297 302 308 311 309 307 306 306 307 308 309 306 307 308 307 309 312 315 317
Height
5891 5890 5890 5890 5890 5889 5889 5889 5889 5888 5888 5888 5888 5888 5888 5888 5888 5888 5889 5890 5890 5891 5892 5892 5893 5893 5894 5894 5894 5894 5895 5895 5895 5895 5895 5895 5895 5895 5894 5894 5893 5893 5893
5892 5891 5891 5890 5890 5889 5889 5889 5889 5888 5888 5888 5888 5888 5888 5888 5887 5887 5888 5889 5890 5891 5891 5892 5893 5893 5894 5894 5894 5894 5895 5895 5895 5895 5895 5894 5894 5894 5894 5893 5893 5893 5892
5893 5892 5891 5891 5890 5890 5889 5889 5888 5888 5888 5888 5887 5887 5887 5887 5887 5887 5888 5889 5890 5890 5891 5892 5893 5893 5893 5894 5894 5894 5894 5894 5894 5894 5894 5893 5893 5893 5893 5893 5892 5892 5891
5893 5892 5892 5891 5891 5890 5890 5889 5889 5888 5888 5887 5887 5887 5887 5887 5887 5888 5888 5889 5890 5890 5891 5892 5893 5893 5893 5893 5894 5894 5893 5893 5894 5893 5893 5893 5893 5893 5893 5892 5892 5891 5890
5894 5893 5892 5892 5891 5891 5890 5889 5888 5888 5887 5887 5887 5887 5887 5887 5888 5888 5889 5889 5890 5890 5891 5891 5892 5892 5893 5893 5893 5893 5893 5893 5893 5893 5893 5892 5892 5892 5892 5891 5891 5890 5890
5895 5894 5893 5892 5892 5891 5890 5889 5889 5888 5887 5887 5887 5887 5887 5888 5888 5889 5889 5890 5890 5890 5891 5891 5892 5892 5892 5892 5893 5892 5892 5892 5892 5892 5892 5892 5891 5891 5891 5890 5890 5889 5888
5895 5894 5894 5893 5892 5891 5890 5890 5888 5887 5887 5886 5887 5888 5888 5889 5889 5889 5890 5890 5891 5891 5891 5891 5892 5892 5892 5892 5892 5892 5892 5891 5891 5891 5891 5891 5891 5890 5890 5889 5889 5888 5887
5896 5895 5894 5894 5893 5892 5891 5890 5889 5888 5888 5887 5888 5889 5889 5889 5890 5890 5890 5890 5891 5891 5891 5892 5892 5892 5892 5892 5891 5891 5891 5891 5891 5890 5890 5890 5890 5889 5889 5888 5887 5887 5886
5897 5896 5895 5894 5894 5893 5892 5891 5890 5889 5889 5888 5889 5889 5890 5890 5890 5891 5891 5891 5891 5891 5891 5891 5892 5891 5891 5891 5891 5891 5890 5890 5890 5889 5889 5889 5888 5888 5887 5887 5886 5885 5885
5898 5897 5896 5895 5894 5893 5892 5891 5891 5890 5890 5889 5889 5889 5890 5890 5891 5891 5891 5891 5891 5891 5891 5891 5891 5891 5891 5890 5890 5890 5890 5889 5889 5889 5888 5888 5887 5887 5886 5885 5884 5884 5883
5898 5898 5897 5896 5895 5894 5893 5892 5891 5891 5891 5890 5890 5890 5890 5891 5891 5892 5892 5892 5892 5891 5891 5891 5891 5890 5890 5890 5890 5889 5889 5889 5888 5888 5887 5887 5886 5885 5884 5884 5883 5882 5881
5899 5898 5898 5897 5896 5895 5894 5893 5892 5892 5892 5891 5891 5891 5891 5892 5892 5892 5892 5892 5892 5892 5891 5891 5891 5890 5889 5889 5889 5888 5888 5888 5887 5887 5886 5886 5885 5884 5883 5882 5881 5880 5879
5900 5899 5899 5898 5897 5896 5895 5894 5893 5892 5892 5892 5892 5892 5892 5892 5892 5892 5892 5892 5892 5892 5892 5891 5891 5890 5889 5889 5888 5888 5888 5887 5887 5886 5885 5885 5884 5883 5882 5881 5880 5878 5877
5901 5901 5900 5899 5898 5897 5896 5895 5894 5893 5893 5893 5893 5893 5893 5893 5893 5893 5893 5893 5893 5892 5892 5891 5890 5890 5889 5888 5888 5888 5887 5887 5887 5886 5885 5884 5883 5882 5881 5880 5878 5877 5875
5903 5902 5901 5900 5899 5898 5897 5895 5895 5894 5894 5894 5894 5894 5893 5893 5893 5893 5893 5893 5893 5892 5892 5891 5890 5890 5889 5888 5888 5888 5887 5887 5886 5885 5884 5883 5882 5881 5880 5878 5877 5876 5874
5904 5903 5902 5901 5900 5899 5898 5896 5895 5895 5895 5895 5895 5894 5894 5894 5894 5893 5894 5893 5893 5892 5892 5891 5891 5890 5889 5889 5888 5888 5887 5887 5886 5885 5884 5883 5882 5880 5879 5877 5876 5875 5873
5906 5904 5904 5903 5901 5900 5899 5897 5896 5895 5895 5895 5895 5895 5895 5895 5894 5894 5894 5894 5893 5892 5892 5891 5890 5890 5889 5888 5888 5887 5887 5886 5885 5884 5883 5882 5881 5880 5878 5876 5875 5874 5872
5907 5906 5905 5904 5903 5901 5900 5899 5898 5897 5897 5896 5896 5896 5896 5895 5895 5895 5895 5894 5893 5893 5892 5891 5890 5889 5889 5888 5887 5887 5886 5885 5884 5884 5883 5881 5880 5879 5877 5875 5874 5873 5871
5907 5906 5906 5905 5904 5903 5901 5900 5899 5898 5898 5897 5897 5896 5896 5896 5896 5895 5895 5894 5893 5893 5892 5891 5890 5889 5888 5887 5887 5886 5885 5884 5884 5883 5882 5881 5879 5877 5876 5874 5873 5872 5870
5908 5907 5906 5906 5905 5903 5902 5901 5900 5899 5898 5898 5898 5897 5897 5896 5896 5895 5895 5894 5893 5893 5892 5891 5890 5889 5888 5887 5886 5885 5885 5884 5883 5882 5881 5880 5878 5877 5875 5873 5872 5870 5869
5909 5908 5907 5906 5905 5904 5903 5902 5901 5900 5899 5898 5898 5897 5897 5896 5896 5895 5894 5894 5893 5893 5892 5891 5890 5889 5887 5886 5886 5885 5884 5882 5882 5881 5880 5878 5877 5876 5874 5872 5871 5869 5867
5909 5908 5907 5906 5905 5904 5903 5902 5901 5900 5899 5898 5898 5897 5897 5896 5895 5895 5894 5893 5893 5892 5891 5890 5890 5889 5887 5886 5885 5884 5883 5882 5880 5879 5878 5877 5876 5874 5873 5871 5869 5868 5866
5909 5908 5907 5906 5905 5904 5903 5902 5901 5900 5899 5899 5898 5897 5897 5896 5895 5894 5894 5893 5892 5892 5891 5890 5889 5888 5887 5885 5884 5883 5882 5881 5879 5878 5877 5876 5874 5873 5871 5870 5868 5866 5864
5908 5907 5907 5906 5905 5904 5904 5903 5901 5900 5899 5898 5897 5897 5896 5895 5894 5893 5893 5892 5892 5891 5890 5889 5888 5887 5885 5884 5882 5881 5880 5878 5878 5877 5876 5874 5873 5871 5869 5868 5866 5864 5862
5907 5906 5906 5905 5905 5904 5903 5902 5901 5900 5899 5898 5897 5896 5895 5894 5893 5892 5892 5891 5890 5889 5888 5888 5886 5885 5884 5882 5881 5879 5878 5877 5876 5875 5874 5872 5871 5869 5868 5866 5864 5862 5861
5906 5905 5905 5904 5904 5903 5902 5901 5900 5899 5898 5897 5896 5895 5894 5893 5892 5891 5890 5889 5888 5887 5886 5886 5884 5883 5882 5881 5879 5878 5876 5875 5874 5873 5871 5870 5868 5867 5865 5863 5862 5860 5858